Regional Weather Roundup
Issued by NWS

Home | Current Version | Previous Version | Text Only | Print | Product List | Glossary Off
Versions: 1 2 3 4 5 6 7 8 9 10 11 12 13 14 15 16 17 18 19 20 21 22 23 24 25 26 27 28 29 30 31 32 33 34 35 36 37 38 39 40 41 42 43 44 45 46 47 48 49 50

000
ASUS43 KMKX 232321
RWRWI

WISCONSIN REGIONAL WEATHER ROUNDUP
NATIONAL WEATHER SERVICE MILWAUKEE/SULLIVAN WI
600 PM CDT SUN APR 23 2017

NOTE: "FAIR" INDICATES FEW OR NO CLOUDS BELOW 12,000 FEET WITH NO
SIGNIFICANT WEATHER AND/OR OBSTRUCTIONS TO VISIBILITY.

WIZ001-002-006>008-014>016-023>028-240000-
NORTHWEST WISCONSIN

CITY           SKY/WX    TMP DP  RH WIND       PRES   REMARKS
SUPERIOR ARPT  CLOUDY    36  27  71 NE15      30.12F WCI  26
ASHLAND        CLOUDY    36  28  73 NE12      30.14S WCI  28
HAYWARD        CLOUDY    42  33  70 NE14      30.05F
SIREN          CLOUDY    47  35  60 NE15      30.00F
CUMBERLAND     CLOUDY    52  37  58 NE13      29.97F
RICE LAKE      CLOUDY    57  40  51 N14       29.97F
CHETEK         CLOUDY    61  43  50 E3        29.96F
LADYSMITH      CLOUDY    56  40  55 NE13      30.00F
EAU CLAIRE     PTSUNNY   67  40  37 E5        29.94F
MENOMONIE      MOSUNNY   68  32  26 S9        29.94F
NEW RICHMOND   CLOUDY    65  37  36 E3        29.93F
OSCEOLA        PTSUNNY   61  44  52 NE5       29.96F
$$

WIZ003>005-009-010-017-018-240000-
NORTH CENTRAL WISCONSIN

CITY           SKY/WX    TMP DP  RH WIND       PRES   REMARKS
MANITOWISH WTR CLOUDY    40  34  79 E8        30.07F WCI  35
ARBOR VITAE    PTSUNNY   43  35  73 NE9       30.06F
WOODRUFF       PTSUNNY   43  35  73 NE9       30.06F
RHINELANDER    CLOUDY    48  36  63 NE8       30.05F
EAGLE RIVER    MOSUNNY   42  32  68 NE8       30.07F
LAND O LAKES   CLOUDY    41  32  70 NE6       30.10F
PHILLIPS       CLOUDY    47  37  66 NE13      30.03S
TOMAHAWK       CLOUDY    53  37  54 NE7       30.03F
MEDFORD        CLOUDY    61  40  44 CALM      29.98F
MERRILL        MOSUNNY   60  42  52 E3        30.00F
$$

WIZ029-030-035-036-043>047-240000-
CENTRAL WISCONSIN

CITY           SKY/WX    TMP DP  RH WIND       PRES   REMARKS
WAUSAU         CLOUDY    59  42  53 SE13      29.99S
MOSINEE        MOSUNNY   57  43  58 SE12G17   30.01S
MARSHFIELD     MOSUNNY   68  36  30 N3        29.96F
STEVENS POINT  MOSUNNY   55  41  58 E15       30.02S
WAUPACA        SUNNY     57  41  55 E10G17    30.05S
WAUTOMA        MOSUNNY   58  44  60 E12G21    30.03R
WISC RAPIDS    MOSUNNY   64  45  49 SE15      30.00S
CAMP DOUGLAS   SUNNY     70  32  24 W9        29.97F
$$

WIZ011>013-019>022-031-037>040-048>050-240000-
NORTHEAST WISCONSIN

CITY           SKY/WX    TMP DP  RH WIND       PRES   REMARKS
ANTIGO         PTSUNNY   53  37  56 E10       30.04S
SHAWANO        SUNNY     50  37  60 SE10      30.09R
OCONTO         SUNNY     41  30  65 E15G21    30.12R
STURGEON BAY   MOSUNNY   41  30  65 NE13      30.12S
GREEN BAY      SUNNY     47  38  71 NE17      30.10R
MANITOWOC      SUNNY     41  32  70 NE10      30.12R
APPLETON       MOSUNNY   52  37  58 E9        30.05R
CLINTONVILLE   MOSUNNY   50  36  57 E9        30.07R
OSHKOSH        MOSUNNY   51  40  65 E14       30.05R
$$

WIZ032>034-041-042-053>061-240000-
SOUTHWEST WISCONSIN

CITY           SKY/WX    TMP DP  RH WIND       PRES   REMARKS
LA CROSSE      MOSUNNY   73  30  20 SW7       29.96S
SPARTA         SUNNY     71  32  23 W5        29.98S
VIROQUA        MOSUNNY   68  31  25 SW9       30.00S
BOSCOBEL       CLOUDY    72  30  21 W7        29.99S
PRAIRIE DU CHI CLOUDY    71  29  20 SW3       29.98S
PLATTEVILLE    SUNNY     70  33  25 S5        30.01S
$$

WIZ056-057-062-063-064-067-068-240000-
SOUTH CENTRAL WISCONSIN

CITY           SKY/WX    TMP DP  RH WIND       PRES   REMARKS
REEDSBURG      SUNNY     69  33  26 W7        29.98S
BARABOO/DELLS  SUNNY     70  31  23 W6        29.98S
LONE ROCK      SUNNY     71  31  22 W8        29.99R
MINERAL POINT  SUNNY     70  30  23 SW6       30.01S
MADISON        PTSUNNY   70  34  26 S5        29.99S
MIDDLETON      SUNNY     71  33  24 SW8       30.00S
WATERTOWN      SUNNY     56  41  58 E16G22    30.02R
MONROE         SUNNY     70  32  24 SW6       30.01S
JANESVILLE     MOSUNNY   72  30  21 VRB6      30.01S
$$

WIZ051-052-058>065-066-070>072-240000-
SOUTHEAST WISCONSIN

CITY           SKY/WX    TMP DP  RH WIND       PRES   REMARKS
MILWAUKEE      MOSUNNY   43  36  76 N15       30.10R
WAUKESHA       SUNNY     46  36  66 NE12G23   30.08
MILWAUKEE/TIMM SUNNY     45  34  65 NE10G17   30.10R
RACINE         SUNNY     43  36  76 NE14      30.10R
KENOSHA        SUNNY     51  39  63 NE9       30.07R
FOND DU LAC    SUNNY     51  36  56 E15       30.06R
SHEBOYGAN      SUNNY     41  34  76 NE20      30.10S
WEST BEND      SUNNY     46  36  66 NE12G18   30.08R
JUNEAU         SUNNY     55  41  60 E14       30.04R
$$

LSZ147-162-240000-
LAKE SUPERIOR

STATION/POSITION TIME  TEMP    WIND        PRES    WAVE
                       AIR SEA DIR/SP/G            HT/PER
                 (UTC) (F)     (DEG/KT/KT) (MB)    (FT/S)
DEVILS ISLAND    2300   34      80/ 14/ 15 1022.2F
PORT WING        2030   37      40/ 12/ 15 1021.7
SAXON HARBOR     2240   36      50/ 15/ 19 1020.3F
$$

LMZ867-665-643>646-240000-
LAKE MICHIGAN

STATION/POSITION TIME  TEMP    WIND        PRES    WAVE
                       AIR SEA DIR/SP/G            HT/PER
                 (UTC) (F)     (DEG/KT/KT) (MB)    (FT/S)
CHAMBERS ISLAND  2240   38      40/ 14/ 17 1020.3R
N MID LAKE BUOY  2250   37 37   70/  6/  8 1022.0S   1/ 4
NORTHPORT PIER   2240   39      80/  9/ 11 1020.7R
KEWAUNEE LAKESHO 2254   39      50/ 15/ 19 1019.4S
SHEBOYGAN LAKESH 2300   38      30/ 16/ 17 1019.7R
PORT WASHINGTON  2240   42      40/ 16/ 20 1020.0S
MILWAUKEE LAKESH 2300   40      30/ 15/ 17   N/A
KENOSHA   LAKESH 2300   42      20/ 16/ 20 1018.3
$$

TC  - TEMPERATURE IN CELSIUS
VSB - VISIBILITY IN STATUTE MILES
WCI - WIND CHILL INDEX
HX  - HEAT INDEX





USA.gov is the U.S. government's official web portal to all federal, state and local government web resources and services.